Idaho Falls, ID

10:12 PM MDT on April 22, 2018 (GMT -0600)
Fanning

Weather History for KIDA - January, 2014

Change the Weather History Date:

Saturday, January 18, 2014

  Actual Average Record
Temperature  
Mean Temperature 24 °F 20 °F  
Max Temperature 35 °F 29 °F 48 °F (2018)
Min Temperature 12 °F 12 °F -27 °F (1984)
Degree Days  
Heating Degree Days 41 45  
Month to date heating degree days 724 810  
Since 1 July heating degree days 3989 4083  
Cooling Degree Days 0 0  
Month to date cooling degree days 0 0  
Year to date cooling degree days 0 0  
Moisture  
Dew Point 17 °F    
Average Humidity 78    
Maximum Humidity 92    
Minimum Humidity 64    
Precipitation  
Precipitation 0.00 in 0.02 in 0.34 in (2000)
Month to date precipitation 0.19 0.44  
Year to date precipitation 0.19 0.44  
Sea Level Pressure  
Sea Level Pressure 30.49 in    
Wind  
Wind Speed 5 mph (North)    
Max Wind Speed 10 mph    
Max Gust Speed 11 mph    
Visibility 7 miles    
Events Fog    
T = Trace of Precipitation, MM = Missing Value Source: NWS Daily Summary

Daily Weather History Graph

Daily Weather History Graph

Search for Another Location

Airport or City:

Astronomy

Jan. 18, 2014 Rise Set
Actual Time 7:56 AM MST 5:21 PM MST
Civil Twilight 7:25 AM MST 5:52 PM MST
Nautical Twilight 6:49 AM MST 6:28 PM MST
Astronomical Twilight 6:15 AM MST 7:02 PM MST
Moon 8:13 PM MST (1/18) 8:52 AM MST (1/18)
Length of Visible Light 10h 27m
Length of Day
9h 24m
Waning Gibbous, 94% of the Moon is Illuminated
Jan 18
Waning Gibbous
Jan 23
Last Quarter
Jan 30
New
Feb 6
First Quarter
Feb 14
Full

Hourly Weather History & Observations

Time (MST) Temp. Windchill Dew Point Humidity Pressure Visibility Wind Dir Wind Speed Gust Speed Precip Events Conditions
12:05 AM 21.0 °F 12.4 °F 19.0 °F 92% 30.37 in 1.8 mi North 6.9 mph - N/A   Overcast
12:19 AM 19.9 °F 13.4 °F 18.0 °F 92% 30.37 in 0.8 mi North 4.6 mph - N/A   Overcast
12:39 AM 19.9 °F - 18.0 °F 92% 30.36 in 0.2 mi Calm Calm - N/A Fog Light Freezing Fog
12:53 AM 19.9 °F 14.9 °F 18.0 °F 92% 30.51 in 0.2 mi North 3.5 mph - N/A Fog Light Freezing Fog
1:53 AM 18.0 °F 8.7 °F 16.0 °F 92% 30.52 in 0.5 mi North 6.9 mph - N/A Fog Light Freezing Fog
2:13 AM 17.1 °F 8.7 °F 15.1 °F 92% 30.36 in 1.2 mi North 5.8 mph - N/A   Overcast
2:30 AM 17.1 °F 5.8 °F 14.0 °F 88% 30.37 in 3.0 mi North 9.2 mph - N/A   Overcast
2:53 AM 16.0 °F 6.3 °F 12.9 °F 88% 30.53 in 8.0 mi NNE 6.9 mph - N/A   Mostly Cloudy
3:00 AM 16.0 °F 10.4 °F 12.9 °F 88% 30.38 in 8.0 mi NNE 3.5 mph - N/A   Scattered Clouds
3:53 AM 15.1 °F 6.4 °F 12.0 °F 88% 30.53 in 8.0 mi North 5.8 mph - N/A   Clear
4:53 AM 14.0 °F 3.9 °F 10.0 °F 84% 30.54 in 10.0 mi NNE 6.9 mph - N/A   Clear
5:53 AM 14.0 °F 8.2 °F 10.0 °F 84% 30.54 in 10.0 mi North 3.5 mph - N/A   Clear
6:53 AM 12.9 °F 3.8 °F 9.0 °F 84% 30.56 in 10.0 mi North 5.8 mph - N/A   Clear
7:53 AM 12.0 °F 4.1 °F 9.0 °F 88% 30.58 in 10.0 mi North 4.6 mph - N/A   Clear
8:53 AM 14.0 °F 2.9 °F 10.9 °F 88% 30.58 in 6.0 mi North 8.1 mph - N/A   Haze
9:53 AM 16.0 °F 7.4 °F 12.0 °F 84% 30.58 in 7.0 mi North 5.8 mph - N/A   Haze
10:53 AM 19.9 °F 10.1 °F 16.0 °F 85% 30.58 in 7.0 mi NNE 8.1 mph - N/A   Haze
11:53 AM 23.0 °F 17.0 °F 18.0 °F 81% 30.56 in 7.0 mi North 4.6 mph - N/A   Haze
12:53 PM 28.0 °F 22.8 °F 21.9 °F 78% 30.51 in 10.0 mi NNW 4.6 mph - N/A   Haze
1:53 PM 30.9 °F 26.2 °F 23.0 °F 72% 30.49 in 10.0 mi North 4.6 mph - N/A   Haze
2:53 PM 33.1 °F 28.7 °F 23.0 °F 66% 30.48 in 10.0 mi North 4.6 mph - N/A   Clear
3:53 PM 34.0 °F 29.8 °F 24.1 °F 67% 30.47 in 10.0 mi North 4.6 mph - N/A   Clear
4:53 PM 32.0 °F 26.4 °F 26.1 °F 79% 30.48 in 10.0 mi NNW 5.8 mph - N/A   Clear
5:53 PM 28.9 °F 22.8 °F 23.0 °F 78% 30.48 in 10.0 mi North 5.8 mph - N/A   Clear
6:53 PM 27.0 °F 21.6 °F 21.9 °F 81% 30.50 in 10.0 mi North 4.6 mph - N/A   Clear
7:53 PM 26.1 °F 21.9 °F 19.9 °F 78% 30.50 in 10.0 mi ENE 3.5 mph - N/A   Clear
8:53 PM 23.0 °F - 19.9 °F 88% 30.49 in 10.0 mi Calm Calm - N/A   Clear
9:53 PM 21.9 °F 17.2 °F 18.0 °F 85% 30.49 in 10.0 mi North 3.5 mph - N/A   Clear
10:53 PM 21.0 °F 14.6 °F 17.1 °F 85% 30.48 in 10.0 mi North 4.6 mph - N/A   Clear
11:53 PM 18.0 °F 9.8 °F 14.0 °F 84% 30.48 in 10.0 mi NNW 5.8 mph - N/A   Clear